AQI (33)

Current Conditions for Foresthill, CA. Clear skies, Dry   
Visibility: 10 miles
Space WX Alerts: CONTINUED ALERT:  Electron 2MeV Integral Flux exceeded 1000pfu ( Latest Alert ) - Issue Time: 2021 Dec 05 1512 UTC

  Summary / Temperature 

Current Temperature
48.5°F
9.2°C
(24/hr Ago)
50.1°F
(Apparent temp)
44.4°F
Cool
Wind Chill Graphs
47.1°F 

48.5°F/ 9.2°C
 --- Virtual Temp: 49.8°F ---

 Temp Rate:

 24/hr Difference:

 Avg Running Temp:

 Todays High:

 Todays Low:

 Y-days High:

 Y-days Low:

 Todays WChill:

 Y-days WChill:

 Evapotranspiration:

-0.9°F/hr 

-1.6°F

49.2°F

51.4°F 12:00am

48.5°F 3:16am

66.2°F 12:48pm

48.1°F 12:04am

45.0°F 1:52am

45.5°F 1:09am

0.001 in

115' Above Ground

 Temperature:

 6'AGL VRS 115'AGL:

 Avg Running Temp:

 Humidity:

 Todays High:

 Todays Low:

 Y-days High:

 Y-days Low:

63.0°F 

+14.5°F

63.0°F

0% 

63.0°F 12:00am

63.0°F 12:00am

67.0°F 12:24pm

58.0°F 11:59pm

Temp & Humidity Graphs

  Wind 

Wind Speed

 3.0 mph

Gusting to

 6.0 mph

Wind from ENE

60°  ENE

Light air

 Avg speed:

 Wind Run:

 Peak Gust:

  1.0 mph 

2.0 miles

  10.0 mph 1:51am

  Almanac  

Moon age: 2 days,12 hours,6 minutes,7%

Waxing Crescent
7%
Illuminated
2 days in cycle

 Moonrise:

 Moonset:

 Sunrise:

 Sunset:

 Solar Noon:

9:58am

7:16pm

7:07am

4:40pm

11:55am

0min 59s less daylight tomorrow 

  Solar Radiation 

(Current Solar)
  No Sun Light
(Todays High)
 None@12:00am

Rain

 Rain Today:

 Rain Rate (/hr):

 Rain last hour:

 Rain Yesterday:

 This Month:

 Season Total:

16 Days Since Last Rain Day

0.00 in

0.000 in

0.00 in

0.00 in

0.00 in

15.05 in

Updated Time

Updated: 12/6/21  3:38am

(Updated  sec ago)

Humidity & Barometer

 Humidity:

 Wetbulb:

 Dew Point:

 Barometer:

53% 

42.0°F 

32.1°F 

30.139 inHg 

 Baro Trend:  Falling Slowly 
Northern Calif
Preparedness
Fire 
Level 

    UV Index  

(Current UV)
0.0  None
(Todays High) @ 12:00am
0.0   None

National Weather Service Forecast

Overnight

Overnight: Partly Cloudy
Partly Cloudy
Monday

Monday: Mostly Cloudy
Mostly Cloudy
Monday
Night
Monday Night: Chance Light Rain
Chance Light Rain
Tuesday

Tuesday: Sunny
Sunny
Tuesday
Night
Tuesday Night: Mostly Clear
Mostly Clear
Wednesday

Wednesday: Mostly Sunny then Slight Chance Light Rain
Mostly Sunny
Lo 49 °F ↑ Hi 56 °F ↓ Lo 45 °F ↑ Hi 60 °F Lo 45 °F Hi 55 °F

Foresthill Probe 2 Stats  
Foresthill Probe 2: is located on Thomas Street
at 3000 feet. The main Foresthill Weather site
is located on Melody ln at the 2860 foot elevation

Calm
50.1°F
10.1°C
Temp Rate:
-0.1°F
Calm
Gusting to
1.0 mph
(Humidity)
50%
Wind from ENE
66°  ENE
Updated: 06/12/21 - 03:38:31
 Todays High: 50.8°F 00:00
 Todays Low: 49.1°F 02:03
 Rain Today: 0.00 in
 Season Total: 15.51 in

Foresthill Wx: Monthly,Yearly, Highs and Lows 

Foresthill  
This Weather Data is coming from the main Foresthill
Weather site located on Melody ln at the 2860 foot
elevation
Not Foresthill Probe 2
Weather Data
Month
  High
Month
  Low
Year
High
Year
Low
Temp 74.0°F
12/1/21
47.9°F
12/4/21
103.9°F
6/18/21
25.3°F
1/26/21
Humidity 83%
12/4/21
23%
12/1/21
100%
1/3/21
5%
7/12/21
Heat Index 73.5°F
12/1/21
49.2°F
12/5/21
101.4°F
6/27/21
31.2°F
1/26/21
Wind Chill 74.0°F
12/1/21
45.0°F
12/3/21
103.9°F
6/18/21
12.5°F
1/26/21
Wind Gust 23 mph
12/1/21
0 mph
12/1/21
50 mph
1/19/21
0 mph
1/1/21
Barometer 30.30 in
12/5/21
30.07 in
12/3/21
30.52 in
2/21/21
29.56 in
10/24/21
ET 0.09 in
12/1/21
0.00 in
12/1/21
0.33 in
7/12/21
0.00 in
1/1/21
Dew Point 48.8°F
12/1/21
23.1°F
12/5/21
64.9°F
9/10/21
3.6°F
2/24/21
Visible Satellite Pacific Satellite US Radar Satellite Imagery Sacramento,CA.  (click to enlarge)
NWS Weather Forecast - Summary
Updated: Sunday, December 5, 2021 - 2:10pm PST
NWS Weather Forecast: Overnight and Monday (Updated: Mon, 06-Dec-2021 1:52am PST)
Overnight

Overnight: Partly Cloudy
Partly Cloudy

Lo 49 °F ↑
NWS forecast: Partly cloudy. Low around 49, with temperatures rising to around 51 overnight. East northeast wind around 5 mph.
Monday

Monday: Mostly Cloudy
Mostly Cloudy

Hi 56 °F ↓
NWS forecast: A chance of rain after 3pm. Mostly cloudy. High near 56, with temperatures falling to around 51 in the afternoon. North northwest wind around 5 mph. Chance of precipitation is 40%.
YR.NO 10 Day Weather forecast
Last update: 12/05/2021 @ 17:35
Next update: 12/05/2021 @ 23:35
Provided by: 22
      Temperature Precipitation Pressure Wind  
Today
12/06/2021
01:00 06:00 41°F   30.15 inHg Light breeze from east-northeast 7 mph
  06:00 12:00 39°F   30.08 inHg Light breeze from east 4 mph
  12:00 18:00 52°F   30.09 inHg Light air from southwest 2 mph
  18:00 00:00 48°F   30.04 inHg Light air from east 3 mph
    (Click to enlarge)
meteogram

    Forecast for next 9 days

      Temperature Precip Pressure Wind  
Tuesday
12/07/2021
00:00 06:00 45°F   30.00 inHg Light air from east 1 mph
  06:00 12:00 46°F   29.96 inHg Light air from east-northeast 2 mph
  12:00 18:00 59°F   29.93 inHg Light air from west 3 mph
  18:00 00:00 46°F   29.98 inHg Light air from northeast 1 mph
      Temperature Precip Pressure Wind  
Wednesday
12/08/2021
00:00 06:00 36°F   30.06 inHg Light air from east 3 mph
  04:00 10:00 39°F   30.03 inHg Light breeze from east 6 mph
  10:00 16:00 52°F   30.04 inHg Light breeze from south 6 mph
  16:00 22:00 48°F 0.03 in 29.96 inHg Light breeze from south-southwest 6 mph
  22:00 04:00 45°F 0.16 in 29.91 inHg Light breeze from south-southwest 5 mph
      Temperature Precip Pressure Wind  
Thursday
12/09/2021
04:00 10:00 41°F 0.21 in 29.84 inHg Light breeze from south-southwest 4 mph
  10:00 16:00 39°F 0.03 in 29.89 inHg Light breeze from west 4 mph
  16:00 22:00 39°F   29.89 inHg Light breeze from west 5 mph
  22:00 04:00 28°F   30.04 inHg Light breeze from east 4 mph
      Temperature Precip Pressure Wind  
Friday
12/10/2021
04:00 10:00 23°F   30.09 inHg Light breeze from east 4 mph
  10:00 16:00 39°F   30.19 inHg Light air from south-southeast 1 mph
  16:00 22:00 39°F   30.18 inHg Light air from west-northwest 3 mph
  22:00 04:00 27°F   30.20 inHg Light breeze from east-northeast 7 mph
      Temperature Precip Pressure Wind  
Saturday
12/11/2021
04:00 10:00 25°F   30.27 inHg Light breeze from east 5 mph
  10:00 16:00 43°F   30.36 inHg Light air from south-southeast 2 mph
  16:00 22:00 41°F   30.30 inHg Light air from west-northwest 2 mph
  22:00 04:00 28°F   30.26 inHg Light air from east 3 mph
      Temperature Precip Pressure Wind  
Sunday
12/12/2021
04:00 10:00 25°F   30.18 inHg Light breeze from east-northeast 4 mph
  10:00 16:00 48°F   30.12 inHg Light air from south-southwest 1 mph
  16:00 22:00 46°F   30.01 inHg Light air from west 1 mph
  22:00 04:00 30°F   30.00 inHg Light breeze from east 6 mph
      Temperature Precip Pressure Wind  
Monday
12/13/2021
04:00 10:00 32°F   29.97 inHg Light breeze from east 6 mph
  10:00 16:00 46°F   30.03 inHg Light breeze from south-southwest 7 mph
  16:00 22:00 46°F 0.07 in 29.96 inHg Gentle breeze from south-southeast 11 mph
  22:00 04:00 45°F 0.68 in 29.91 inHg Gentle breeze from south 11 mph
      Temperature Precip Pressure Wind  
Tuesday
12/14/2021
04:00 10:00 41°F 0.81 in 29.97 inHg Gentle breeze from south-southeast 11 mph
  10:00 16:00 43°F 0.74 in 30.01 inHg Gentle breeze from south-southeast 10 mph
  16:00 22:00 41°F 0.03 in 30.09 inHg Light breeze from south-southeast 7 mph
How Close Are We To this Month's Temperature Record ?
Updated Monday, Dec 6, 2021- 3:35:00 AM

Current Temperature: 48.5°F

December's High: Temperature Record 74.0°F - Set on Wed, Dec 1, 2021 - 11:44:49 AM
We are currently 25.5°F Less than this Month's record High

December's Low: Temperature Record 20.2°F - Set on Sun, Dec 8, 2013 - 7:26:00 AM
We are currently 28.3°F More than this Month's record Low

Weather History For Monday, December 6, 2021


On this Day - In Weather History ...
Data courtesy of weatherforyou.com
powered by Cumulus v1.9.3 (1059)
Ambient Weather VWS v14.00
Top Website Map Copyright © 2007 - 2021 Foresthillweather.com Never base important decisions on this or any weather information obtained from the Internet